Погода в Каноасе

Бразилия     29°54′54″S   51°10′57″W
темп.,
°C
ветер,
м/с
пор.,
м/с
влажн.,
%
обл.,
%
осадки,
мм/ч
давл.,
гПа
погр.,
м
26 февраля, пт
пт2600:00+23в510710 0.0 1016636
03:00+22в48740 0.0 1015490
06:00+21в36770 0.0 1015402
09:00+24в35590 0.0 1017761
12:00+29вюв45380 0.0 10161279
15:00+31вюв56360 0.0 10141501
18:00+27вюв69490 0.0 10151074
21:00+24в713620 0.0 1017856
27 февраля, сб
сб2700:00+23в611670 0.0 1017927
03:00+22в49710 0.0 1017770
06:00+21в38780 0.0 1018526
09:00+25вюв57667 0.0 10201000
12:00+28вюв575582 0.2 10201377
15:00+29вюв695076 0.3 10181530
18:00+27вюв7105338 0.0 10181344
21:00+24в6126619 0.0 10191261
28 февраля, вс
вс2800:00+23в512650 0.0 10191169
03:00+23в510751 0.0 1018982
06:00+22в49750 0.0 1018878
09:00+25вюв596625 0.2 10181110
12:00+29вюв695539 0.7 10181428
15:00+29вюв7105333 1.3 10151516
18:00+26в7126442 0.2 10151364
21:00+24в6127344 0.2 10151148
1 марта, пн
пн100:00+24в6117782 0.0 1015996
03:00+24в487889 0.1 1013629
06:00+22в25867 0.0 1013327
09:00+26в357026 0.3 1013700
12:00+30юв435481 0.9 10131217
15:00+29юв575973 3.3 10101227
18:00+28юв575922 0.4 10101070
21:00+25вюв497111 0.4 1011649
2 марта, вт
вт200:00+24вюв48820 0.0 1011585
03:00+23вюв358718 0.0 1010419
06:00+23вюв248941 0.0 1011285
09:00+27в126633 0.0 1012617
12:00+31ююв225114 0.1 10121188
15:00+30ююв565527 0.1 1010954
18:00+28ююв576115 0.0 10101014
21:00+26вюв367110 0.0 1012551